This demonstration page uses our WeatherBlox Daily Observations layout. Learn more.

Left ArrowRight Arrow

39.92423, -83.80882

Hourly Observations for February 6, 2020

Temp ( °F °C ) Dew Point ( °F °C ) Humidity (%) Winds ( mph kmh ) Pressure ( in mb ) Visibility ( mi km ) Precip ( " mm )
12:37 am 00:37 Cloudy with Mist and Fog 30 -1 30 -1 100 100 ENE 10 17 29.65 1004 6 10 N/A
12:56 am 00:56 Cloudy 31 -0.6 31 -0.6 100 100 E 10 17 29.62 1003 8 13 N/A
1:56 am 01:56 Cloudy with Mist and Fog 31 -0.6 31 -0.6 100 100 NNE 8 13 29.62 1003 3 5 N/A
2:10 am 02:10 Cloudy with Mist and Fog 30 -1 30 -1 100 100 NNE 7 11 29.65 1004 3 4 N/A
2:25 am 02:25 Cloudy with Mist and Fog 30 -1 30 -1 100 100 N 7 11 29.67 1005 3 5 N/A
2:42 am 02:42 Cloudy with Mist and Fog 30 -1 30 -1 100 100 N 7 11 29.67 1005 3 4 N/A
2:56 am 02:56 Cloudy with Light Snow 31 -0.6 31 -0.6 100 100 NNE 7 11 29.63 1004 2 3 N/A
3:25 am 03:25 Cloudy with Light Snow 30 -1 30 -1 100 100 NNE 8 13 29.64 1004 2 3 N/A
3:56 am 03:56 Cloudy with Light Snow 31 -0.6 31 -0.6 100 100 NNE 8 13 29.61 1003 2 3 N/A
4:09 am 04:09 Cloudy with Light Snow 30 -1 30 -1 100 100 NNE 9 15 29.63 1003 3 4 N/A
4:17 am 04:17 Cloudy with Light Snow 30 -1 30 -1 100 100 NE 7 11 29.63 1003 3 5 N/A
4:56 am 04:56 Cloudy with Mist and Fog 30 -1.1 30 -1.1 100 100 NE 7 11 29.59 1002 6 10 N/A
5:56 am 05:56 Cloudy 30 -1.1 30 -1.1 100 100 NNE 14 22 29.57 1001 7 11 0.01 0.25
6:56 am 06:56 Cloudy 30 -1.1 30 -1.1 100 100 NE 10 17 29.56 1001 10 16 N/A
7:56 am 07:56 Cloudy 30 -1.1 30 -1.1 100 100 NNE 6 9 29.55 1001 10 16 N/A
8:18 am 08:18 Cloudy 30 -1 30 -1 100 100 NE 9 15 29.58 1002 10 16 N/A
8:56 am 08:56 Cloudy 31 -0.6 31 -0.6 100 100 NNE 6 9 29.57 1002 10 16 N/A
9:46 am 09:46 Cloudy with Light Snow 30 -1 30 -1 100 100 N 9 15 29.60 1002 3 5 0.00 0.00
9:56 am 09:56 Cloudy with Light Snow 30 -1.1 30 -1.1 100 100 NNW 10 17 29.59 1002 2 3 0.00 0.00
10:12 am 10:12 Cloudy with Light Freezing Rain 30 -1 30 -1 100 100 NNW 10 17 29.63 1003 1 2 0.00 0.00
10:15 am 10:15 Cloudy with Light Snow 30 -1 30 -1 100 100 NNW 13 20 29.64 1004 1 2 0.00 0.00
10:39 am 10:39 Cloudy with Light Snow 30 -1 30 -1 100 100 N 12 19 29.61 1003 2 3 0.00 0.00
10:45 am 10:45 Cloudy with Light Freezing Rain 30 -1 30 -1 100 100 N 9 15 29.61 1003 3 4 0.00 0.00
10:56 am 10:56 Cloudy with Light Freezing Rain 30 -1.1 30 -1.1 100 100 N 8 13 29.58 1002 4 6 0.00 0.00
11:06 am 11:06 Cloudy with Light Snow 30 -1 30 -1 100 100 NNE 8 13 29.60 1002 5 8 0.00 0.00
11:56 am 11:56 Cloudy 30 -1.1 30 -1.1 100 100 NE 9 15 29.54 1000 10 16 0.00 0.00
12:56 pm 12:56 Cloudy 31 -0.6 31 -0.6 100 100 ENE 13 20 29.44 997 10 16 N/A
1:56 pm 13:56 Cloudy 31 -0.6 31 -0.6 100 100 N 8 13 29.44 997 9 14 0.05 1.27
2:56 pm 14:56 Cloudy with Mist and Fog 30 -1.1 30 -1.1 100 100 N 9 15 29.44 997 5 8 0.02 0.51
3:56 pm 15:56 Cloudy with Light Snow 30 -1.1 30 -1.1 100 100 NNW 10 17 29.47 998 6 10 0.00 0.00
4:23 pm 16:23 Cloudy with Light Snow 30 -1 30 -1 100 100 NW 8 13 29.51 999 6 10 0.00 0.00
4:56 pm 16:56 Cloudy with Light Snow 30 -1.1 30 -1.1 100 100 NW 10 17 29.48 998 2 3 0.00 0.00
5:03 pm 17:03 Cloudy with Light Snow 30 -1 30 -1 100 100 NNW 10 17 29.50 999 1 2 0.00 0.00
5:37 pm 17:37 Cloudy with Light Snow 28 -2 28 -2 100 100 NNW 9 15 29.50 999 3 5 0.00 0.00
5:56 pm 17:56 Cloudy 29 -1.7 29 -1.7 100 100 NNW 12 19 29.47 998 9 14 0.00 0.00
6:30 pm 18:30 Cloudy with Light Snow 28 -2 28 -2 100 100 N 14 22 29.50 999 9 14 0.00 0.00
6:56 pm 18:56 Cloudy 29 -1.7 28 -2.2 96 96 N 10 17 29.49 999 10 16 0.00 0.00
7:06 pm 19:06 Cloudy 28 -2 28 -2 100 100 N 10 17 29.51 999 10 16 N/A
7:21 pm 19:21 Cloudy 28 -2 28 -2 100 100 N 9 15 29.51 999 10 16 N/A
7:56 pm 19:56 Cloudy 28 -2.2 27 -2.8 96 96 N 12 19 29.47 998 9 14 0.00 0.00
8:08 pm 20:08 Cloudy with Light Snow 28 -2 27 -3 93 93 N 7 11 29.51 999 9 14 0.00 0.00
8:21 pm 20:21 Cloudy with Light Snow 28 -2 27 -3 93 93 NNW 7 11 29.52 1000 9 14 0.00 0.00
8:56 pm 20:56 Cloudy 28 -2.2 27 -2.8 96 96 N 7 11 29.49 999 10 16 0.00 0.00
9:56 pm 21:56 Cloudy 28 -2.2 27 -2.8 96 96 NNW 10 17 29.47 998 10 16 N/A
10:18 pm 22:18 Cloudy with Light Snow 28 -2 27 -3 93 93 N 7 11 29.48 998 9 14 0.00 0.00
10:56 pm 22:56 Cloudy with Light Snow 28 -2.2 27 -2.8 96 96 NNW 12 19 29.47 998 9 14 0.00 0.00
11:56 pm 23:56 Cloudy 27 -2.8 26 -3.3 96 96 N 9 15 29.46 998 10 16 0.00 0.00

Powered by AerisWeather